Retour au catalogue

COSMOS 1478

ActifMilitaireLEO
NORAD 14176·PAYLOAD·🇷🇺 Russia

Lancé Jul 6, 1983 depuis Plesetsk Cosmodrome

Loading…

Prochains Passages (prochaines 24 heures)

TLE

FraisSource: Space-Track

Époque: Sep 14, 2026, 01:33 UTC

1 14176U 83069F   26257.06491532 -.00000013  00000-0  18618-4 0  9990
2 14176  74.0231 281.9502 0011742  30.6003 358.2649 12.48264917968231

Suivez COSMOS 1478 en temps réel avec AllMySat

Download on the App Store